Theta_e
307 307 307 307 307 306 306 303 296 314 314 297 297 295 296 299 297 299 298 300 297 296 297 293 292 295 301 308 307 301 305 302 293 297 304 306 304 301 303 295 293 297 294 294
308 307 307 307 307 306 306 299 300 310 311 291 295 298 298 299 298 298 297 297 298 299 297 296 297 296 306 306 305 303 305 300 295 293 301 305 302 302 303 304 302 296 291 294
307 307 307 307 307 307 305 300 294 303 307 305 298 295 295 296 299 298 299 299 300 299 299 300 299 298 301 306 304 308 308 301 298 294 297 301 299 301 303 303 297 296 296 297
307 307 307 307 307 307 306 300 297 300 294 297 296 297 296 294 292 299 297 299 299 298 294 296 298 302 302 303 304 305 303 297 301 301 300 298 300 299 300 299 301 295 297 298
306 306 307 307 306 306 304 297 296 300 298 299 297 295 295 294 293 292 295 293 297 298 294 298 296 300 301 301 304 302 303 295 299 298 302 301 298 300 300 301 301 300 300 299
304 305 306 307 307 306 300 304 306 299 293 296 295 295 295 295 297 296 297 298 295 294 299 302 303 304 305 305 303 300 300 299 295 290 298 297 294 298 300 300 302 301 296 301
304 304 305 306 307 306 302 301 302 294 290 294 294 296 296 296 297 295 298 296 292 301 305 305 304 304 303 304 304 306 300 299 297 292 297 286 297 303 301 300 301 303 303 305
303 304 304 305 306 306 303 302 300 294 290 295 295 297 297 298 298 295 294 295 299 304 302 296 293 292 293 296 301 302 305 301 296 292 292 294 296 299 299 297 297 304 303 304
302 304 304 304 305 306 307 306 305 298 292 296 297 296 297 294 297 294 294 300 301 302 300 296 289 286 291 292 295 302 302 303 296 294 288 285 298 303 305 305 295 305 305 306
303 303 304 304 304 305 307 305 307 300 292 301 300 296 296 298 299 296 295 295 297 301 295 292 291 291 295 291 291 292 295 296 293 292 291 293 302 304 306 294 295 305 306 306
303 303 304 304 305 304 304 304 307 300 296 300 302 301 299 298 299 294 299 296 299 298 294 294 294 294 295 295 297 294 293 292 292 293 289 286 304 303 297 304 308 306 306 305
302 303 304 304 305 304 305 301 309 306 297 299 307 307 308 306 305 299 303 298 300 299 297 297 297 295 299 297 291 300 293 297 296 296 295 307 309 308 310 309 305 305 306 306
303 303 304 304 305 305 304 304 308 304 298 299 302 299 306 309 309 311 299 302 305 305 307 300 300 293 299 296 295 297 301 304 301 299 303 303 307 309 310 308 307 307 306 305
302 303 304 304 305 305 304 304 305 302 297 294 297 308 304 309 311 310 310 307 309 308 304 302 300 294 300 296 297 298 301 303 300 298 303 303 304 306 307 307 306 305 304 303
302 303 304 304 304 304 306 306 308 309 297 290 296 304 304 310 310 308 308 307 307 302 298 297 296 300 298 300 299 295 302 300 299 298 304 304 302 305 308 305 303 303 301 299
303 304 304 304 304 305 305 298 304 307 305 296 292 303 299 304 307 305 305 308 306 304 301 298 299 301 298 295 293 299 301 306 307 304 308 307 306 309 306 304 304 304 301 299
304 304 305 305 304 304 297 296 300 304 306 297 292 293 299 302 303 304 304 307 305 305 301 297 297 298 298 296 293 299 301 306 308 307 307 305 306 302 305 305 305 303 301 300
304 304 304 304 304 303 300 305 305 305 300 300 292 292 293 299 295 296 304 301 303 300 299 300 296 298 297 291 298 301 301 303 304 305 308 307 306 305 304 305 303 300 299 298
305 304 303 303 302 297 300 306 306 307 299 292 295 291 288 298 295 298 301 301 293 300 297 295 298 294 291 296 297 300 301 301 303 305 308 305 303 302 303 303 301 299 298 299
303 302 296 292 296 305 306 300 296 296 296 297 293 298 290 295 295 297 297 299 293 291 294 297 292 293 299 299 301 303 303 305 305 302 301 301 300 301 302 301 301 300 299 299
300 294 292 298 303 299 296 291 290 294 290 295 295 295 292 297 293 295 300 295 295 290 292 292 292 291 298 302 302 303 306 305 305 306 306 305 303 302 301 300 300 299 299 299
298 298 300 299 296 295 290 290 293 291 290 294 293 294 296 300 301 296 297 292 294 287 299 293 289 296 301 302 302 304 305 307 305 305 303 303 303 302 300 299 298 298 298 298
302 297 293 295 294 286 287 285 289 290 293 294 295 292 299 300 301 297 295 288 289 300 292 290 296 301 303 302 303 305 305 305 306 303 304 303 301 300 298 297 298 298 297 297
292 289 286 290 289 291 291 292 293 296 297 296 297 296 296 297 294 294 288 293 295 288 287 290 299 300 301 303 304 304 303 304 302 302 301 299 297 297 297 297 297 296 295 296
290 290 286 288 291 293 296 295 297 298 299 297 295 296 294 293 289 293 290 287 286 289 290 294 302 301 302 302 303 302 302 301 300 300 298 297 297 296 296 297 297 296 296 295
292 291 289 291 290 292 294 294 298 300 298 300 298 292 289 288 290 286 285 285 286 292 296 297 301 300 301 301 301 302 301 301 299 298 298 298 297 297 297 297 296 295 295 294
291 290 293 291 291 293 295 300 299 303 297 292 294 287 289 295 290 286 290 289 293 298 297 296 297 299 303 303 301 301 301 299 299 299 298 299 298 298 296 294 295 296 296 294
Wind_Speed
22 20 20 20 21 20 17 7 8 9 8 5 6 15 24 25 15 22 18 22 23 19 7 7 6 20 2 13 14 22 19 9 6 18 20 21 20 19 20 6 10 6 4 8
22 21 20 20 19 16 8 7 13 8 8 6 10 13 20 14 14 19 18 23 25 24 23 25 16 21 13 5 2 1 5 14 12 7 6 9 17 11 10 11 8 11 3 4
22 21 19 19 19 18 7 5 7 4 6 10 14 10 16 17 1 15 12 22 10 20 22 21 7 7 5 3 1 16 8 11 16 12 7 7 19 19 19 14 9 10 13 5
23 22 20 18 17 18 7 5 7 4 9 11 15 17 10 18 9 10 7 12 16 18 7 15 19 10 15 10 1 5 4 7 13 12 1 3 22 16 18 13 15 9 14 12
22 22 21 20 17 20 4 6 4 7 15 17 16 18 11 9 5 3 10 10 15 13 9 17 11 12 11 12 17 15 11 3 9 10 15 17 7 3 7 13 18 14 12 9
21 21 22 22 18 10 4 5 10 3 9 13 17 10 11 13 5 4 5 17 8 9 11 5 8 8 6 3 16 14 15 13 5 3 13 13 13 15 17 16 15 12 11 11
22 21 21 21 21 13 4 8 3 3 7 14 12 16 14 14 6 7 9 10 8 5 5 11 4 4 10 3 10 9 11 15 10 6 12 8 3 6 4 9 12 14 13 8
23 21 21 21 20 20 6 5 3 3 6 13 14 15 14 14 2 6 5 6 8 4 8 6 7 3 2 8 7 6 4 11 4 4 8 8 10 8 7 10 11 11 4 2
23 23 21 20 20 20 10 7 4 3 5 3 15 15 11 7 5 1 5 7 9 10 1 2 5 5 8 9 7 4 7 4 5 7 4 6 8 6 3 5 6 4 2 8
24 23 22 22 20 20 13 8 3 3 5 8 12 11 8 9 11 3 3 3 3 6 3 2 1 4 2 7 9 11 9 9 9 4 3 4 8 8 6 12 5 3 9 11
24 23 24 24 20 20 12 9 7 4 4 11 15 7 6 7 7 4 4 3 5 4 3 0 1 2 3 4 6 12 8 8 7 5 6 7 5 5 5 8 6 12 11 11
23 23 24 23 20 18 15 8 1 3 4 7 17 15 14 11 11 6 8 3 6 4 4 5 4 3 2 8 5 7 5 5 5 7 5 8 9 11 11 8 11 12 12 11
23 23 25 23 21 18 12 8 7 2 3 6 7 4 2 7 9 8 4 5 8 5 5 3 2 3 3 2 3 5 4 3 2 7 8 10 12 11 11 13 13 14 11 10
23 24 24 24 21 15 14 7 5 1 3 5 1 6 3 10 8 8 8 8 9 5 4 3 3 2 3 2 2 2 0 7 6 8 11 11 10 11 13 15 14 13 12 11
23 23 22 20 13 11 11 9 7 5 1 2 6 6 5 10 7 7 3 4 4 3 2 1 3 3 3 2 4 4 7 5 4 4 12 4 14 11 12 12 14 13 13 12
23 20 20 20 12 8 5 3 6 6 2 3 3 3 6 10 5 4 4 1 2 4 0 2 3 4 5 0 3 4 4 8 5 3 7 6 14 13 14 14 14 13 13 13
20 21 19 11 6 3 3 3 2 7 4 3 4 1 1 5 2 3 3 2 1 2 2 2 1 1 4 3 4 6 4 12 9 6 13 15 17 13 14 14 15 13 13 12
20 19 9 5 5 6 5 5 10 4 2 4 3 2 1 4 3 1 1 2 2 4 3 1 1 2 3 4 4 6 4 2 12 8 13 13 14 16 15 14 13 13 12 12
18 8 9 4 2 2 2 1 2 0 2 3 4 2 2 2 1 2 0 3 1 3 1 1 3 2 4 1 3 11 5 4 11 10 14 14 17 15 14 13 12 12 11 10
8 3 2 1 2 14 3 2 2 2 2 2 3 4 2 1 3 3 2 2 2 2 2 3 2 4 5 2 4 3 9 4 12 14 15 15 15 13 12 12 11 11 10 9
2 3 2 2 8 2 2 2 2 3 2 3 1 3 0 2 2 1 2 0 2 2 3 2 2 2 2 8 7 4 10 6 6 9 14 13 13 12 12 12 12 11 10 9
2 3 2 2 2 3 3 1 2 3 1 3 1 3 3 2 4 1 2 2 3 1 1 2 3 5 6 9 10 11 11 12 11 12 14 13 13 14 14 13 12 12 11 10
2 3 3 3 2 3 4 6 4 3 4 4 4 2 2 2 3 1 0 3 2 1 3 3 1 4 6 9 7 14 11 9 15 14 13 15 15 15 15 14 12 12 9 9
2 3 3 4 1 4 5 4 3 4 2 6 3 2 2 1 1 1 3 2 2 4 3 2 6 7 11 10 10 14 13 14 15 15 15 16 16 15 14 13 11 10 9 8
2 2 3 2 3 4 4 4 5 5 4 4 3 2 2 1 1 2 2 2 4 4 4 2 6 6 10 9 12 11 13 12 13 14 14 16 15 14 13 12 11 10 9 9
2 2 3 2 3 2 3 3 2 1 2 2 1 2 2 2 1 2 3 2 4 3 4 4 4 5 13 13 12 12 11 12 12 13 13 14 14 13 12 11 10 9 9 9
2 1 1 3 4 4 3 1 3 2 3 1 1 2 1 2 3 4 3 3 3 6 5 2 4 7 14 14 14 15 14 13 13 14 13 13 13 12 11 11 9 9 10 9
Wind_Direction
328 329 329 327 327 330 311 298 280 137 163 230 211 246 258 318 258 277 236 222 254 270 267 269 280 271 85 356 206 208 209 243 139 213 193 222 213 204 192 201 222 228 183 271
327 331 327 327 331 332 314 290 287 286 168 259 282 296 294 270 300 280 254 257 245 252 254 239 158 261 162 14 18 320 225 217 184 243 140 213 190 228 256 230 238 213 256 153
331 326 326 327 332 329 312 286 289 95 226 270 277 294 307 313 126 269 283 287 304 299 264 253 191 121 354 241 330 38 32 270 223 213 181 249 207 215 204 188 208 240 228 183
337 337 329 328 328 328 309 246 280 298 299 314 302 297 280 298 357 314 313 298 223 242 271 280 259 173 161 195 119 103 72 283 243 252 327 127 251 212 220 204 239 192 236 241
336 336 336 335 330 332 255 287 315 338 302 311 310 293 304 325 338 15 296 213 307 329 249 245 309 182 207 171 189 191 170 236 267 245 206 240 182 187 210 223 237 242 259 277
333 333 335 337 334 343 296 326 296 253 281 294 294 314 330 300 275 182 270 335 313 289 267 122 13 11 256 91 171 186 176 212 199 271 244 218 213 209 205 238 238 249 250 231
329 329 330 331 336 332 301 309 314 293 283 289 290 295 324 338 354 312 326 353 351 154 144 116 155 27 354 167 173 195 185 197 161 206 201 200 86 47 302 269 242 239 221 181
323 324 324 326 329 329 308 302 300 289 275 311 310 335 328 334 67 15 15 351 321 299 158 119 100 70 101 253 189 160 200 197 181 218 207 113 163 162 205 219 229 248 261 105
318 320 322 322 325 329 311 294 251 264 286 275 329 324 339 317 353 56 351 81 321 347 341 179 166 162 183 175 130 271 191 232 202 186 192 213 96 72 7 308 159 31 240 119
320 320 321 321 319 322 319 291 276 275 276 284 351 335 333 324 329 7 101 346 246 252 247 115 170 121 232 152 165 172 183 191 192 143 162 265 129 108 201 226 119 57 85 101
318 319 320 320 316 316 322 295 277 267 265 293 308 334 301 311 319 343 84 205 208 281 290 296 127 99 119 96 125 163 168 160 202 163 190 241 87 186 265 120 151 111 98 93
316 318 316 315 315 314 316 287 297 176 243 288 303 291 270 263 264 302 309 302 343 331 344 0 8 3 194 123 128 164 165 177 186 167 196 97 67 88 112 106 104 107 108 103
314 314 313 314 310 304 304 297 302 267 273 285 285 13 215 256 247 254 288 351 357 4 318 302 347 63 303 187 116 125 148 111 209 128 136 120 108 109 102 107 100 99 105 106
313 311 310 311 305 288 291 288 294 239 271 282 351 284 33 304 279 263 252 278 307 284 311 339 309 357 354 352 66 141 123 173 154 100 110 121 119 108 114 111 108 106 98 96
310 312 314 318 317 304 287 274 253 217 263 297 279 330 347 307 281 275 252 237 274 266 243 20 309 24 317 121 323 192 186 153 165 177 165 110 133 133 127 133 130 115 108 100
313 315 315 315 303 316 314 300 40 22 210 281 308 72 336 310 46 57 63 25 351 299 227 86 35 26 304 212 261 109 132 134 88 73 144 121 134 138 142 122 119 112 108 107
315 313 308 314 314 270 247 312 306 331 292 255 284 77 325 352 292 356 16 27 47 352 327 86 99 116 257 240 205 71 244 132 127 118 117 129 138 144 124 115 107 112 112 106
312 319 316 304 288 265 262 256 226 258 274 268 284 95 129 25 348 66 34 6 13 36 341 261 4 192 226 251 156 116 43 186 152 180 120 133 137 124 124 129 126 128 124 118
310 300 301 272 234 255 4 197 154 248 352 292 280 22 77 169 41 276 123 229 166 148 258 189 262 234 237 331 179 151 191 203 160 111 127 145 131 136 140 134 136 129 126 122
325 304 336 344 318 310 120 146 205 208 174 248 280 35 77 146 238 192 160 213 206 216 169 150 238 256 234 176 62 126 148 212 127 146 141 130 140 144 141 133 136 125 124 123
329 357 349 266 292 283 255 170 215 185 194 225 219 39 109 150 286 81 51 248 278 251 145 231 247 265 105 183 159 213 138 138 103 128 127 140 139 133 119 115 107 116 119 108
346 312 285 283 260 229 254 189 156 231 39 151 181 101 300 147 228 247 217 277 254 302 250 232 235 142 152 154 167 132 134 142 134 131 131 132 119 116 122 123 117 106 108 114
263 236 254 245 204 254 243 182 160 161 150 172 155 143 242 214 236 244 298 267 281 177 230 221 102 140 156 158 138 126 144 135 131 128 118 116 119 123 117 115 111 107 103 104
334 324 296 308 256 0 26 21 8 59 103 110 143 119 77 10 67 62 265 231 274 265 232 126 98 99 107 113 131 132 132 128 124 121 123 128 118 119 117 113 113 109 104 108
298 300 320 334 345 281 333 316 321 83 104 148 165 87 63 114 185 239 290 257 250 229 28 18 71 122 112 109 120 121 122 137 127 130 126 122 122 116 114 108 106 105 107 105
264 268 284 286 258 241 213 225 205 25 127 233 148 171 209 195 229 224 216 248 261 59 41 48 48 93 110 101 103 95 113 114 116 116 125 122 125 121 116 114 113 113 114 109
286 276 294 280 273 278 327 341 133 164 215 355 246 237 345 185 232 204 211 297 29 2 47 86 153 136 137 136 147 157 156 148 137 132 130 124 118 126 125 117 110 114 105 96